Time,TemperatureF,DewpointF,PressureIn,WindDirection,WindDirectionDegrees,WindSpeedMPH,WindSpeedGustMPH,Humidity,HourlyPrecipIn,Conditions,Clouds,dailyrainin,SoftwareType,DateUTC
2013-03-27 00:00:00,48.3,37.8,30.28,NW,309,0.0,0.0,67,0.00,,,0.00,Wunderground v.1.15,2013-03-27 04:00:00,
2013-03-27 00:02:00,48.3,37.8,30.28,NW,309,0.0,5.0,67,0.00,,,0.00,Wunderground v.1.15,2013-03-27 04:02:00,
2013-03-27 00:03:00,48.2,37.8,30.28,NW,309,0.0,5.0,67,0.00,,,0.00,Wunderground v.1.15,2013-03-27 04:03:00,
2013-03-27 00:06:00,48.2,37.8,30.28,NW,309,0.0,5.0,67,0.00,,,0.00,Wunderground v.1.15,2013-03-27 04:06:00,
2013-03-27 00:12:00,48.2,37.8,30.28,NW,309,0.0,0.0,67,0.00,,,0.00,Wunderground v.1.15,2013-03-27 04:12:00,
2013-03-27 00:18:00,48.1,38.0,30.28,NW,309,0.0,0.0,68,0.00,,,0.00,Wunderground v.1.15,2013-03-27 04:18:00,
2013-03-27 00:24:00,48.0,38.3,30.27,NW,309,0.0,0.0,69,0.00,,,0.00,Wunderground v.1.15,2013-03-27 04:24:00,
2013-03-27 00:29:00,47.8,38.1,30.27,NW,309,0.0,0.0,69,0.00,,,0.00,Wunderground v.1.15,2013-03-27 04:29:00,
2013-03-27 00:34:00,47.6,37.9,30.27,NW,309,0.0,0.0,69,0.00,,,0.00,Wunderground v.1.15,2013-03-27 04:34:00,
2013-03-27 00:40:00,47.4,38.5,30.27,NW,309,0.0,0.0,71,0.00,,,0.00,Wunderground v.1.15,2013-03-27 04:40:00,
2013-03-27 00:47:00,47.1,38.2,30.27,NW,309,0.0,0.0,71,0.00,,,0.00,Wunderground v.1.15,2013-03-27 04:47:00,
2013-03-27 00:52:00,47.0,38.1,30.27,NW,309,0.0,0.0,71,0.00,,,0.00,Wunderground v.1.15,2013-03-27 04:52:00,
2013-03-27 00:58:00,46.8,38.2,30.27,NW,309,0.0,0.0,72,0.00,,,0.00,Wunderground v.1.15,2013-03-27 04:58:00,
2013-03-27 01:04:00,46.6,38.1,30.27,NW,309,0.0,2.0,72,0.00,,,0.00,Wunderground v.1.15,2013-03-27 05:04:00,
2013-03-27 01:10:00,46.4,38.2,30.27,NW,309,0.0,0.0,73,0.00,,,0.00,Wunderground v.1.15,2013-03-27 05:10:00,
2013-03-27 01:15:00,46.1,37.9,30.27,NW,309,0.0,0.0,73,0.00,,,0.00,Wunderground v.1.15,2013-03-27 05:15:00,
2013-03-27 01:22:00,45.9,38.1,30.27,NW,309,0.0,0.0,74,0.00,,,0.00,Wunderground v.1.15,2013-03-27 05:22:00,
2013-03-27 01:27:00,45.8,37.6,30.27,NW,309,0.0,0.0,73,0.00,,,0.00,Wunderground v.1.15,2013-03-27 05:27:00,
2013-03-27 01:33:00,45.6,37.8,30.27,NW,309,0.0,0.0,74,0.00,,,0.00,Wunderground v.1.15,2013-03-27 05:33:00,
2013-03-27 01:38:00,45.4,37.9,30.28,NW,309,0.0,0.0,75,0.00,,,0.00,Wunderground v.1.15,2013-03-27 05:38:00,
2013-03-27 01:43:00,45.2,38.1,30.27,NW,309,0.0,0.0,76,0.00,,,0.00,Wunderground v.1.15,2013-03-27 05:43:00,
2013-03-27 01:49:00,45.0,38.2,30.27,NW,309,0.0,0.0,77,0.00,,,0.00,Wunderground v.1.15,2013-03-27 05:49:00,
2013-03-27 01:55:00,44.9,37.8,30.27,NW,309,0.0,0.0,76,0.00,,,0.00,Wunderground v.1.15,2013-03-27 05:55:00,
2013-03-27 02:00:00,44.8,38.0,30.26,NW,309,0.0,0.0,77,0.00,,,0.00,Wunderground v.1.15,2013-03-27 06:00:00,
2013-03-27 02:05:00,44.6,37.8,30.27,NW,309,0.0,0.0,77,0.00,,,0.00,Wunderground v.1.15,2013-03-27 06:05:00,
2013-03-27 02:12:00,45.2,37.1,30.27,North,9,0.0,0.0,73,0.00,,,0.00,Wunderground v.1.15,2013-03-27 06:12:00,
2013-03-27 02:17:00,45.6,36.7,30.26,North,9,0.0,0.0,71,0.00,,,0.00,Wunderground v.1.15,2013-03-27 06:17:00,
2013-03-27 02:23:00,45.9,35.9,30.26,North,9,0.0,0.0,68,0.00,,,0.00,Wunderground v.1.15,2013-03-27 06:23:00,
2013-03-27 02:28:00,46.3,35.2,30.26,North,360,0.0,0.0,65,0.00,,,0.00,Wunderground v.1.15,2013-03-27 06:28:00,
2013-03-27 02:33:00,46.7,35.2,30.26,ENE,60,0.0,4.0,64,0.00,,,0.00,Wunderground v.1.15,2013-03-27 06:33:00,
2013-03-27 02:39:00,47.3,34.5,30.26,NNE,21,0.0,4.0,61,0.00,,,0.00,Wunderground v.1.15,2013-03-27 06:39:00,
2013-03-27 02:44:00,47.7,34.5,30.26,NNE,23,0.0,0.0,60,0.00,,,0.00,Wunderground v.1.15,2013-03-27 06:44:00,
2013-03-27 02:50:00,47.9,34.3,30.26,NNE,26,0.0,2.0,59,0.00,,,0.00,Wunderground v.1.15,2013-03-27 06:50:00,
2013-03-27 02:55:00,48.1,34.4,30.26,NE,44,0.0,2.0,59,0.00,,,0.00,Wunderground v.1.15,2013-03-27 06:55:00,
2013-03-27 03:00:00,48.3,34.2,30.26,NNW,336,1.0,1.0,58,0.00,,,0.00,Wunderground v.1.15,2013-03-27 07:00:00,
2013-03-27 03:05:00,48.4,34.7,30.26,East,84,0.0,1.0,59,0.00,,,0.00,Wunderground v.1.15,2013-03-27 07:05:00,
2013-03-27 03:11:00,48.4,34.3,30.26,NNW,344,0.0,0.0,58,0.00,,,0.00,Wunderground v.1.15,2013-03-27 07:11:00,
2013-03-27 03:17:00,48.2,34.1,30.25,NNW,345,0.0,0.0,58,0.00,,,0.00,Wunderground v.1.15,2013-03-27 07:17:00,
2013-03-27 03:22:00,48.2,34.5,30.26,NNW,342,0.0,2.0,59,0.00,,,0.00,Wunderground v.1.15,2013-03-27 07:22:00,
2013-03-27 03:27:00,48.2,34.5,30.26,NNE,26,0.0,2.0,59,0.00,,,0.00,Wunderground v.1.15,2013-03-27 07:27:00,
2013-03-27 03:33:00,48.2,34.1,30.25,NNE,13,0.0,0.0,58,0.00,,,0.00,Wunderground v.1.15,2013-03-27 07:33:00,
2013-03-27 03:38:00,48.2,34.1,30.25,North,350,0.0,0.0,58,0.00,,,0.00,Wunderground v.1.15,2013-03-27 07:38:00,
2013-03-27 03:43:00,48.2,35.4,30.25,North,350,0.0,0.0,61,0.00,,,0.00,Wunderground v.1.15,2013-03-27 07:43:00,
2013-03-27 03:49:00,48.1,34.0,30.25,East,80,0.0,2.0,58,0.00,,,0.00,Wunderground v.1.15,2013-03-27 07:49:00,
2013-03-27 03:54:00,48.1,34.0,30.25,North,351,0.0,0.0,58,0.00,,,0.00,Wunderground v.1.15,2013-03-27 07:54:00,
2013-03-27 04:00:00,48.1,34.0,30.25,East,101,0.0,0.0,58,0.00,,,0.00,Wunderground v.1.15,2013-03-27 08:00:00,
2013-03-27 04:05:00,48.1,33.6,30.25,NNW,336,0.0,5.0,57,0.00,,,0.00,Wunderground v.1.15,2013-03-27 08:05:00,
2013-03-27 04:11:00,48.1,34.0,30.25,NNW,338,0.0,6.0,58,0.00,,,0.00,Wunderground v.1.15,2013-03-27 08:11:00,
2013-03-27 04:16:00,48.0,33.9,30.25,NNE,17,1.0,6.0,58,0.00,,,0.00,Wunderground v.1.15,2013-03-27 08:16:00,
2013-03-27 04:22:00,47.9,33.8,30.25,NNW,330,1.0,2.0,58,0.00,,,0.00,Wunderground v.1.15,2013-03-27 08:22:00,
2013-03-27 04:27:00,47.9,34.3,30.26,NW,310,0.0,4.0,59,0.00,,,0.00,Wunderground v.1.15,2013-03-27 08:27:00,
2013-03-27 04:32:00,47.9,34.3,30.26,NNE,22,0.0,1.0,59,0.00,,,0.00,Wunderground v.1.15,2013-03-27 08:32:00,
2013-03-27 04:38:00,47.8,34.2,30.26,NNW,344,0.0,1.0,59,0.00,,,0.00,Wunderground v.1.15,2013-03-27 08:38:00,
2013-03-27 04:44:00,47.6,34.0,30.26,NNE,29,0.0,0.0,59,0.00,,,0.00,Wunderground v.1.15,2013-03-27 08:44:00,
2013-03-27 04:49:00,47.4,34.2,30.26,NNW,333,0.0,1.0,60,0.00,,,0.00,Wunderground v.1.15,2013-03-27 08:49:00,
2013-03-27 04:55:00,47.3,34.1,30.25,NNW,329,0.0,0.0,60,0.00,,,0.00,Wunderground v.1.15,2013-03-27 08:55:00,
2013-03-27 05:00:00,47.3,34.5,30.25,NW,317,0.0,0.0,61,0.00,,,0.00,Wunderground v.1.15,2013-03-27 09:00:00,
2013-03-27 05:05:00,47.2,34.0,30.26,ENE,75,0.0,4.0,60,0.00,,,0.00,Wunderground v.1.15,2013-03-27 09:05:00,
2013-03-27 05:11:00,47.1,33.9,30.26,NE,37,0.0,0.0,60,0.00,,,0.00,Wunderground v.1.15,2013-03-27 09:11:00,
2013-03-27 05:17:00,47.0,33.8,30.26,East,79,0.0,0.0,60,0.00,,,0.00,Wunderground v.1.15,2013-03-27 09:17:00,
2013-03-27 05:22:00,46.8,34.0,30.26,NE,44,0.0,0.0,61,0.00,,,0.00,Wunderground v.1.15,2013-03-27 09:22:00,
2013-03-27 05:28:00,46.8,34.0,30.26,NE,36,0.0,2.0,61,0.00,,,0.00,Wunderground v.1.15,2013-03-27 09:28:00,
2013-03-27 05:33:00,46.8,34.5,30.26,NE,37,0.0,0.0,62,0.00,,,0.00,Wunderground v.1.15,2013-03-27 09:33:00,
2013-03-27 05:38:00,46.7,34.4,30.26,North,360,0.0,0.0,62,0.00,,,0.00,Wunderground v.1.15,2013-03-27 09:38:00,
2013-03-27 05:43:00,46.7,34.4,30.27,NNW,333,0.0,0.0,62,0.00,,,0.00,Wunderground v.1.15,2013-03-27 09:43:00,
2013-03-27 05:49:00,46.5,33.8,30.27,NNW,336,0.0,0.0,61,0.00,,,0.00,Wunderground v.1.15,2013-03-27 09:49:00,
2013-03-27 05:54:00,46.3,33.6,30.27,North,350,0.0,2.0,61,0.00,,,0.00,Wunderground v.1.15,2013-03-27 09:54:00,
2013-03-27 05:59:00,46.3,33.6,30.27,North,350,0.0,2.0,61,0.00,,,0.00,Wunderground v.1.15,2013-03-27 09:59:00,
2013-03-27 06:04:00,46.3,34.0,30.27,NE,40,0.0,1.0,62,0.00,,,0.00,Wunderground v.1.15,2013-03-27 10:04:00,
2013-03-27 06:09:00,46.3,33.6,30.27,NE,40,0.0,1.0,61,0.00,,,0.00,Wunderground v.1.15,2013-03-27 10:09:00,
2013-03-27 06:15:00,46.3,33.2,30.27,NNW,329,0.0,1.0,60,0.00,,,0.00,Wunderground v.1.15,2013-03-27 10:15:00,
2013-03-27 06:20:00,46.3,33.2,30.28,ENE,57,0.0,0.0,60,0.00,,,0.00,Wunderground v.1.15,2013-03-27 10:20:00,
2013-03-27 06:25:00,46.1,33.0,30.28,NNW,331,0.0,3.0,60,0.00,,,0.00,Wunderground v.1.15,2013-03-27 10:25:00,
2013-03-27 06:30:00,46.1,33.4,30.28,SE,134,0.0,1.0,61,0.00,,,0.00,Wunderground v.1.15,2013-03-27 10:30:00,
2013-03-27 06:36:00,46.1,32.6,30.28,NNE,28,0.0,2.0,59,0.00,,,0.00,Wunderground v.1.15,2013-03-27 10:36:00,
2013-03-27 06:41:00,46.1,32.6,30.28,East,92,1.0,9.0,59,0.00,,,0.00,Wunderground v.1.15,2013-03-27 10:41:00,
2013-03-27 06:47:00,46.0,32.9,30.28,NNE,18,1.0,9.0,60,0.00,,,0.00,Wunderground v.1.15,2013-03-27 10:47:00,
2013-03-27 06:52:00,45.9,33.2,30.29,NE,44,0.0,1.0,61,0.00,,,0.00,Wunderground v.1.15,2013-03-27 10:52:00,
2013-03-27 06:57:00,45.7,33.0,30.29,NNE,19,0.0,1.0,61,0.00,,,0.00,Wunderground v.1.15,2013-03-27 10:57:00,
2013-03-27 07:02:00,45.6,33.3,30.29,NNE,18,0.0,3.0,62,0.00,,,0.00,Wunderground v.1.15,2013-03-27 11:02:00,
2013-03-27 07:07:00,45.5,33.2,30.29,NE,42,1.0,3.0,62,0.00,,,0.00,Wunderground v.1.15,2013-03-27 11:07:00,
2013-03-27 07:13:00,45.4,33.5,30.30,NE,55,1.0,4.0,63,0.00,,,0.00,Wunderground v.1.15,2013-03-27 11:13:00,
2013-03-27 07:18:00,45.2,33.7,30.30,NNW,332,0.0,4.0,64,0.00,,,0.00,Wunderground v.1.15,2013-03-27 11:18:00,
2013-03-27 07:23:00,45.1,34.0,30.30,North,355,0.0,0.0,65,0.00,,,0.00,Wunderground v.1.15,2013-03-27 11:23:00,
2013-03-27 07:29:00,44.9,33.8,30.30,NNW,345,0.0,2.0,65,0.00,,,0.00,Wunderground v.1.15,2013-03-27 11:29:00,
2013-03-27 07:34:00,44.8,34.1,30.31,NE,47,0.0,0.0,66,0.00,,,0.00,Wunderground v.1.15,2013-03-27 11:34:00,
2013-03-27 07:40:00,44.7,34.0,30.31,NNE,13,1.0,1.0,66,0.00,,,0.00,Wunderground v.1.15,2013-03-27 11:40:00,
2013-03-27 07:45:00,44.7,34.0,30.31,North,355,1.0,1.0,66,0.00,,,0.00,Wunderground v.1.15,2013-03-27 11:45:00,
2013-03-27 07:50:00,44.6,34.3,30.31,North,355,0.0,0.0,67,0.00,,,0.00,Wunderground v.1.15,2013-03-27 11:50:00,
2013-03-27 07:55:00,44.5,34.2,30.32,East,79,0.0,3.0,67,0.00,,,0.00,Wunderground v.1.15,2013-03-27 11:55:00,
2013-03-27 08:00:00,44.6,33.9,30.32,NNE,30,0.0,0.0,66,0.00,,,0.00,Wunderground v.1.15,2013-03-27 12:00:00,
2013-03-27 08:06:00,44.8,34.1,30.32,NNE,24,0.0,6.0,66,0.00,,,0.00,Wunderground v.1.15,2013-03-27 12:06:00,
2013-03-27 08:11:00,44.9,34.2,30.32,WNW,298,0.0,0.0,66,0.00,,,0.00,Wunderground v.1.15,2013-03-27 12:11:00,
2013-03-27 08:17:00,45.0,34.3,30.33,North,9,1.0,3.0,66,0.00,,,0.00,Wunderground v.1.15,2013-03-27 12:17:00,
2013-03-27 08:23:00,45.2,34.1,30.33,East,80,1.0,3.0,65,0.00,,,0.00,Wunderground v.1.15,2013-03-27 12:23:00,
2013-03-27 08:28:00,45.3,33.8,30.33,NNW,336,2.0,3.0,64,0.00,,,0.00,Wunderground v.1.15,2013-03-27 12:28:00,
2013-03-27 08:33:00,45.4,33.5,30.33,NNW,343,1.0,2.0,63,0.00,,,0.00,Wunderground v.1.15,2013-03-27 12:33:00,
2013-03-27 08:38:00,45.4,33.9,30.33,ENE,63,2.0,4.0,64,0.00,,,0.00,Wunderground v.1.15,2013-03-27 12:38:00,
2013-03-27 08:45:00,45.8,34.3,30.34,North,5,1.0,3.0,64,0.00,,,0.00,Wunderground v.1.15,2013-03-27 12:45:00,
2013-03-27 08:51:00,46.1,34.2,30.34,NNW,342,1.0,3.0,63,0.00,,,0.00,Wunderground v.1.15,2013-03-27 12:51:00,
2013-03-27 08:57:00,46.1,34.2,30.35,North,355,2.0,5.0,63,0.00,,,0.00,Wunderground v.1.15,2013-03-27 12:57:00,
2013-03-27 09:03:00,46.2,34.3,30.35,East,79,3.0,10.0,63,0.00,,,0.00,Wunderground v.1.15,2013-03-27 13:03:00,
2013-03-27 09:08:00,46.5,34.2,30.35,NNE,31,2.0,10.0,62,0.00,,,0.00,Wunderground v.1.15,2013-03-27 13:08:00,
2013-03-27 09:14:00,47.0,34.2,30.35,NNW,342,1.0,2.0,61,0.00,,,0.00,Wunderground v.1.15,2013-03-27 13:14:00,
2013-03-27 09:19:00,46.9,34.6,30.35,NNE,28,3.0,6.0,62,0.00,,,0.00,Wunderground v.1.15,2013-03-27 13:19:00,
2013-03-27 09:24:00,47.0,34.6,30.35,North,5,2.0,3.0,62,0.00,,,0.00,Wunderground v.1.15,2013-03-27 13:24:00,
2013-03-27 09:29:00,47.3,34.1,30.35,NW,325,1.0,6.0,60,0.00,,,0.00,Wunderground v.1.15,2013-03-27 13:29:00,
2013-03-27 09:35:00,47.6,34.0,30.35,North,360,2.0,4.0,59,0.00,,,0.00,Wunderground v.1.15,2013-03-27 13:35:00,
2013-03-27 09:41:00,47.8,34.2,30.35,North,355,3.0,3.0,59,0.00,,,0.00,Wunderground v.1.15,2013-03-27 13:41:00,
2013-03-27 09:47:00,47.9,34.3,30.36,NNE,13,3.0,9.0,59,0.00,,,0.00,Wunderground v.1.15,2013-03-27 13:47:00,
2013-03-27 09:53:00,48.0,33.9,30.36,NW,316,3.0,4.0,58,0.00,,,0.00,Wunderground v.1.15,2013-03-27 13:53:00,
2013-03-27 09:59:00,48.3,33.8,30.36,NNW,339,2.0,4.0,57,0.00,,,0.00,Wunderground v.1.15,2013-03-27 13:59:00,
2013-03-27 10:04:00,48.6,33.1,30.36,NNW,341,1.0,12.0,55,0.00,,,0.00,Wunderground v.1.15,2013-03-27 14:04:00,
2013-03-27 10:10:00,49.0,33.1,30.36,ESE,113,1.0,1.0,54,0.00,,,0.00,Wunderground v.1.15,2013-03-27 14:10:00,
2013-03-27 10:15:00,49.4,33.0,30.36,NNW,339,1.0,5.0,53,0.00,,,0.00,Wunderground v.1.15,2013-03-27 14:15:00,
2013-03-27 10:20:00,49.7,32.8,30.36,NNW,327,1.0,1.0,52,0.00,,,0.00,Wunderground v.1.15,2013-03-27 14:20:00,
2013-03-27 10:25:00,50.0,32.1,30.36,WNW,290,2.0,4.0,50,0.00,,,0.00,Wunderground v.1.15,2013-03-27 14:25:00,
2013-03-27 10:32:00,49.9,31.5,30.36,NE,36,2.0,3.0,49,0.00,,,0.00,Wunderground v.1.15,2013-03-27 14:32:00,
2013-03-27 10:38:00,50.1,31.7,30.37,North,355,1.0,3.0,49,0.00,,,0.00,Wunderground v.1.15,2013-03-27 14:38:00,
2013-03-27 10:43:00,50.4,31.4,30.36,NE,34,1.0,3.0,48,0.00,,,0.00,Wunderground v.1.15,2013-03-27 14:43:00,
2013-03-27 10:49:00,51.0,32.5,30.36,NNW,328,1.0,3.0,49,0.00,,,0.00,Wunderground v.1.15,2013-03-27 14:49:00,
2013-03-27 10:55:00,50.9,32.4,30.36,NNW,348,2.0,9.0,49,0.00,,,0.00,Wunderground v.1.15,2013-03-27 14:55:00,
2013-03-27 11:02:00,50.7,32.2,30.36,North,350,3.0,11.0,49,0.00,,,0.00,Wunderground v.1.15,2013-03-27 15:02:00,
2013-03-27 11:08:00,51.2,33.2,30.36,NNE,18,1.0,11.0,50,0.00,,,0.00,Wunderground v.1.15,2013-03-27 15:08:00,
2013-03-27 11:14:00,51.6,32.5,30.36,NW,323,1.0,3.0,48,0.00,,,0.00,Wunderground v.1.15,2013-03-27 15:14:00,
2013-03-27 11:19:00,51.7,32.6,30.36,NW,322,2.0,3.0,48,0.00,,,0.00,Wunderground v.1.15,2013-03-27 15:19:00,
2013-03-27 11:24:00,52.0,31.8,30.36,NNW,346,1.0,5.0,46,0.00,,,0.00,Wunderground v.1.15,2013-03-27 15:24:00,
2013-03-27 11:30:00,52.4,32.2,30.36,NNW,332,1.0,1.0,46,0.00,,,0.00,Wunderground v.1.15,2013-03-27 15:30:00,
2013-03-27 11:36:00,52.7,32.5,30.36,West,281,1.0,7.0,46,0.00,,,0.00,Wunderground v.1.15,2013-03-27 15:36:00,
2013-03-27 11:41:00,52.4,32.7,30.36,NNE,32,2.0,3.0,47,0.00,,,0.00,Wunderground v.1.15,2013-03-27 15:41:00,
2013-03-27 11:47:00,52.7,33.0,30.36,WNW,293,2.0,4.0,47,0.00,,,0.00,Wunderground v.1.15,2013-03-27 15:47:00,
2013-03-27 11:53:00,53.4,33.1,30.36,NNE,28,1.0,6.0,46,0.00,,,0.00,Wunderground v.1.15,2013-03-27 15:53:00,
2013-03-27 11:58:00,53.3,33.0,30.36,North,350,2.0,7.0,46,0.00,,,0.00,Wunderground v.1.15,2013-03-27 15:58:00,
2013-03-27 12:04:00,53.0,33.3,30.36,NNE,22,2.0,9.0,47,0.00,,,0.00,Wunderground v.1.15,2013-03-27 16:04:00,
2013-03-27 12:10:00,53.1,32.3,30.36,NW,314,2.0,2.0,45,0.00,,,0.00,Wunderground v.1.15,2013-03-27 16:10:00,
2013-03-27 12:17:00,53.2,32.4,30.36,SSE,165,2.0,7.0,45,0.00,,,0.00,Wunderground v.1.15,2013-03-27 16:17:00,
2013-03-27 12:23:00,53.9,33.6,30.36,NNW,343,1.0,4.0,46,0.00,,,0.00,Wunderground v.1.15,2013-03-27 16:23:00,
2013-03-27 12:29:00,54.4,34.6,30.35,WNW,298,1.0,5.0,47,0.00,,,0.00,Wunderground v.1.15,2013-03-27 16:29:00,
2013-03-27 12:34:00,55.0,33.5,30.35,East,96,2.0,5.0,44,0.00,,,0.00,Wunderground v.1.15,2013-03-27 16:34:00,
2013-03-27 12:40:00,54.8,33.3,30.35,NW,310,4.0,6.0,44,0.00,,,0.00,Wunderground v.1.15,2013-03-27 16:40:00,
2013-03-27 12:46:00,55.1,34.1,30.35,NNW,342,3.0,6.0,45,0.00,,,0.00,Wunderground v.1.15,2013-03-27 16:46:00,
2013-03-27 12:51:00,55.9,34.3,30.34,NE,42,1.0,5.0,44,0.00,,,0.00,Wunderground v.1.15,2013-03-27 16:51:00,
2013-03-27 12:57:00,55.5,33.9,30.34,WNW,301,2.0,10.0,44,0.00,,,0.00,Wunderground v.1.15,2013-03-27 16:57:00,
2013-03-27 13:04:00,55.8,35.9,30.34,NW,314,3.0,10.0,47,0.00,,,0.00,Wunderground v.1.15,2013-03-27 17:04:00,
2013-03-27 13:10:00,56.2,36.2,30.34,North,5,4.0,5.0,47,0.00,,,0.00,Wunderground v.1.15,2013-03-27 17:10:00,
2013-03-27 13:15:00,56.0,36.0,30.34,NNE,24,4.0,6.0,47,0.00,,,0.00,Wunderground v.1.15,2013-03-27 17:15:00,
2013-03-27 13:21:00,55.8,35.9,30.34,NW,319,4.0,9.0,47,0.00,,,0.00,Wunderground v.1.15,2013-03-27 17:21:00,
2013-03-27 13:27:00,55.7,35.8,30.34,NNE,18,5.0,9.0,47,0.00,,,0.00,Wunderground v.1.15,2013-03-27 17:27:00,
2013-03-27 13:32:00,55.6,36.7,30.33,SSW,205,5.0,5.0,49,0.00,,,0.00,Wunderground v.1.15,2013-03-27 17:32:00,
2013-03-27 13:38:00,55.8,35.9,30.33,NNE,14,4.0,13.0,47,0.00,,,0.00,Wunderground v.1.15,2013-03-27 17:38:00,
2013-03-27 13:43:00,55.5,36.1,30.33,NNE,13,5.0,9.0,48,0.00,,,0.00,Wunderground v.1.15,2013-03-27 17:43:00,
2013-03-27 13:49:00,55.7,36.8,30.33,North,360,4.0,9.0,49,0.00,,,0.00,Wunderground v.1.15,2013-03-27 17:49:00,
2013-03-27 13:54:00,56.1,36.1,30.33,NNW,343,4.0,11.0,47,0.00,,,0.00,Wunderground v.1.15,2013-03-27 17:54:00,
2013-03-27 14:00:00,55.9,36.5,30.33,WNW,285,5.0,14.0,48,0.00,,,0.00,Wunderground v.1.15,2013-03-27 18:00:00,
2013-03-27 14:05:00,54.9,36.1,30.33,WNW,291,7.0,14.0,49,0.00,,,0.00,Wunderground v.1.15,2013-03-27 18:05:00,
2013-03-27 14:12:00,55.2,36.4,30.33,NW,323,5.0,7.0,49,0.00,,,0.00,Wunderground v.1.15,2013-03-27 18:12:00,
2013-03-27 14:18:00,55.0,36.2,30.32,West,280,6.0,8.0,49,0.00,,,0.00,Wunderground v.1.15,2013-03-27 18:18:00,
2013-03-27 14:24:00,55.1,36.8,30.32,North,360,5.0,15.0,50,0.00,,,0.00,Wunderground v.1.15,2013-03-27 18:24:00,
2013-03-27 14:29:00,55.0,37.2,30.32,WNW,298,6.0,15.0,51,0.00,,,0.00,Wunderground v.1.15,2013-03-27 18:29:00,
2013-03-27 14:34:00,55.1,36.8,30.32,North,355,5.0,6.0,50,0.00,,,0.00,Wunderground v.1.15,2013-03-27 18:34:00,
2013-03-27 14:40:00,55.3,37.5,30.31,WNW,294,4.0,4.0,51,0.00,,,0.00,Wunderground v.1.15,2013-03-27 18:40:00,
2013-03-27 14:45:00,56.0,38.6,30.31,NNW,342,3.0,4.0,52,0.00,,,0.00,Wunderground v.1.15,2013-03-27 18:45:00,
2013-03-27 14:53:00,56.2,38.3,30.31,WNW,299,4.0,10.0,51,0.00,,,0.00,Wunderground v.1.15,2013-03-27 18:53:00,
2013-03-27 14:59:00,56.0,38.1,30.31,North,360,5.0,10.0,51,0.00,,,0.00,Wunderground v.1.15,2013-03-27 18:59:00,
2013-03-27 15:05:00,56.3,38.4,30.30,NW,318,4.0,14.0,51,0.00,,,0.00,Wunderground v.1.15,2013-03-27 19:05:00,
2013-03-27 15:11:00,56.4,38.0,30.30,West,271,4.0,4.0,50,0.00,,,0.00,Wunderground v.1.15,2013-03-27 19:11:00,
2013-03-27 15:17:00,56.1,37.7,30.30,WNW,299,4.0,9.0,50,0.00,,,0.00,Wunderground v.1.15,2013-03-27 19:17:00,
2013-03-27 15:23:00,56.4,38.0,30.29,NNE,12,3.0,8.0,50,0.00,,,0.00,Wunderground v.1.15,2013-03-27 19:23:00,
2013-03-27 15:29:00,57.1,38.6,30.29,NNE,13,4.0,8.0,50,0.00,,,0.00,Wunderground v.1.15,2013-03-27 19:29:00,
2013-03-27 15:34:00,57.0,38.5,30.29,NNW,327,4.0,5.0,50,0.00,,,0.00,Wunderground v.1.15,2013-03-27 19:34:00,
2013-03-27 15:39:00,56.8,37.8,30.28,WNW,286,4.0,6.0,49,0.00,,,0.00,Wunderground v.1.15,2013-03-27 19:39:00,
2013-03-27 15:45:00,56.6,38.2,30.28,WNW,300,5.0,10.0,50,0.00,,,0.00,Wunderground v.1.15,2013-03-27 19:45:00,
2013-03-27 15:50:00,56.5,37.6,30.28,WNW,282,4.0,4.0,49,0.00,,,0.00,Wunderground v.1.15,2013-03-27 19:50:00,
2013-03-27 15:55:00,56.5,38.1,30.28,WNW,298,3.0,5.0,50,0.00,,,0.00,Wunderground v.1.15,2013-03-27 19:55:00,
2013-03-27 16:01:00,56.8,38.9,30.28,WNW,294,3.0,11.0,51,0.00,,,0.00,Wunderground v.1.15,2013-03-27 20:01:00,
2013-03-27 16:06:00,56.9,38.9,30.28,NNW,332,3.0,11.0,51,0.00,,,0.00,Wunderground v.1.15,2013-03-27 20:06:00,
2013-03-27 16:12:00,56.9,37.9,30.28,NNW,328,3.0,3.0,49,0.00,,,0.00,Wunderground v.1.15,2013-03-27 20:12:00,
2013-03-27 16:17:00,56.9,38.4,30.28,WNW,283,3.0,5.0,50,0.00,,,0.00,Wunderground v.1.15,2013-03-27 20:17:00,
2013-03-27 16:23:00,56.5,38.6,30.28,West,275,3.0,3.0,51,0.00,,,0.00,Wunderground v.1.15,2013-03-27 20:23:00,
2013-03-27 16:29:00,56.3,38.4,30.28,North,355,4.0,6.0,51,0.00,,,0.00,Wunderground v.1.15,2013-03-27 20:29:00,
2013-03-27 16:34:00,56.4,39.0,30.28,NW,312,3.0,10.0,52,0.00,,,0.00,Wunderground v.1.15,2013-03-27 20:34:00,
2013-03-27 16:40:00,56.5,38.6,30.28,North,5,3.0,9.0,51,0.00,,,0.00,Wunderground v.1.15,2013-03-27 20:40:00,
2013-03-27 16:45:00,56.1,38.7,30.28,NW,318,4.0,9.0,52,0.00,,,0.00,Wunderground v.1.15,2013-03-27 20:45:00,
2013-03-27 16:52:00,55.9,39.0,30.28,North,350,3.0,3.0,53,0.00,,,0.00,Wunderground v.1.15,2013-03-27 20:52:00,
2013-03-27 16:58:00,55.8,38.9,30.28,North,355,4.0,10.0,53,0.00,,,0.00,Wunderground v.1.15,2013-03-27 20:58:00,
2013-03-27 17:03:00,55.8,38.9,30.28,WNW,296,4.0,13.0,53,0.00,,,0.00,Wunderground v.1.15,2013-03-27 21:03:00,
2013-03-27 17:08:00,55.4,39.0,30.28,NNW,336,5.0,13.0,54,0.00,,,0.00,Wunderground v.1.15,2013-03-27 21:08:00,
2013-03-27 17:13:00,55.3,38.4,30.28,NNW,330,4.0,6.0,53,0.00,,,0.00,Wunderground v.1.15,2013-03-27 21:13:00,
2013-03-27 17:19:00,55.0,38.6,30.28,WNW,300,4.0,13.0,54,0.00,,,0.00,Wunderground v.1.15,2013-03-27 21:19:00,
2013-03-27 17:24:00,54.8,39.4,30.28,NW,319,3.0,7.0,56,0.00,,,0.00,Wunderground v.1.15,2013-03-27 21:24:00,
2013-03-27 17:29:00,54.8,38.9,30.27,NNW,345,2.0,9.0,55,0.00,,,0.00,Wunderground v.1.15,2013-03-27 21:29:00,
2013-03-27 17:35:00,54.6,38.7,30.27,NNW,348,3.0,6.0,55,0.00,,,0.00,Wunderground v.1.15,2013-03-27 21:35:00,
2013-03-27 17:40:00,54.7,39.3,30.27,WNW,296,3.0,3.0,56,0.00,,,0.00,Wunderground v.1.15,2013-03-27 21:40:00,
2013-03-27 17:46:00,54.4,39.5,30.27,NNW,338,3.0,8.0,57,0.00,,,0.00,Wunderground v.1.15,2013-03-27 21:46:00,
2013-03-27 17:52:00,54.1,39.6,30.27,North,5,3.0,3.0,58,0.00,,,0.00,Wunderground v.1.15,2013-03-27 21:52:00,
2013-03-27 17:58:00,53.9,39.5,30.28,WNW,301,3.0,14.0,58,0.00,,,0.00,Wunderground v.1.15,2013-03-27 21:58:00,
2013-03-27 18:03:00,53.7,39.7,30.28,WNW,288,3.0,15.0,59,0.00,,,0.00,Wunderground v.1.15,2013-03-27 22:03:00,
2013-03-27 18:09:00,53.6,39.2,30.28,West,281,3.0,15.0,58,0.00,,,0.00,Wunderground v.1.15,2013-03-27 22:09:00,
2013-03-27 18:15:00,53.7,39.7,30.28,WNW,301,3.0,3.0,59,0.00,,,0.00,Wunderground v.1.15,2013-03-27 22:15:00,
2013-03-27 18:20:00,53.7,39.7,30.28,WNW,300,2.0,4.0,59,0.00,,,0.00,Wunderground v.1.15,2013-03-27 22:20:00,
2013-03-27 18:26:00,53.6,39.6,30.28,WNW,295,2.0,9.0,59,0.00,,,0.00,Wunderground v.1.15,2013-03-27 22:26:00,
2013-03-27 18:32:00,53.4,39.4,30.27,WNW,289,3.0,9.0,59,0.00,,,0.00,Wunderground v.1.15,2013-03-27 22:32:00,
2013-03-27 18:38:00,53.2,39.2,30.27,NNW,329,2.0,9.0,59,0.00,,,0.00,Wunderground v.1.15,2013-03-27 22:38:00,
2013-03-27 18:44:00,53.1,39.1,30.27,NNW,336,2.0,7.0,59,0.00,,,0.00,Wunderground v.1.15,2013-03-27 22:44:00,
2013-03-27 18:49:00,53.0,39.5,30.28,NW,306,2.0,7.0,60,0.00,,,0.00,Wunderground v.1.15,2013-03-27 22:49:00,
2013-03-27 18:54:00,52.8,40.1,30.28,NNW,341,1.0,5.0,62,0.00,,,0.00,Wunderground v.1.15,2013-03-27 22:54:00,
2013-03-27 18:59:00,52.7,40.0,30.28,NW,305,1.0,6.0,62,0.00,,,0.00,Wunderground v.1.15,2013-03-27 22:59:00,
2013-03-27 19:05:00,52.7,40.5,30.27,NW,319,1.0,15.0,63,0.00,,,0.00,Wunderground v.1.15,2013-03-27 23:05:00,
2013-03-27 19:11:00,52.5,39.8,30.27,NW,324,2.0,5.0,62,0.00,,,0.00,Wunderground v.1.15,2013-03-27 23:11:00,
2013-03-27 19:17:00,52.3,39.7,30.27,WNW,287,2.0,5.0,62,0.00,,,0.00,Wunderground v.1.15,2013-03-27 23:17:00,
2013-03-27 19:23:00,52.2,40.0,30.27,NW,321,1.0,1.0,63,0.00,,,0.00,Wunderground v.1.15,2013-03-27 23:23:00,
2013-03-27 19:28:00,52.1,39.9,30.27,WNW,300,2.0,6.0,63,0.00,,,0.00,Wunderground v.1.15,2013-03-27 23:28:00,
2013-03-27 19:33:00,51.8,40.0,30.27,NNW,343,2.0,3.0,64,0.00,,,0.00,Wunderground v.1.15,2013-03-27 23:33:00,
2013-03-27 19:39:00,51.6,39.8,30.27,NW,317,1.0,3.0,64,0.00,,,0.00,Wunderground v.1.15,2013-03-27 23:39:00,
2013-03-27 19:44:00,51.5,39.7,30.27,NNW,348,1.0,3.0,64,0.00,,,0.00,Wunderground v.1.15,2013-03-27 23:44:00,
2013-03-27 19:50:00,51.4,40.0,30.27,North,360,1.0,1.0,65,0.00,,,0.00,Wunderground v.1.15,2013-03-27 23:50:00,
2013-03-27 19:56:00,51.2,39.8,30.27,NW,315,1.0,5.0,65,0.00,,,0.00,Wunderground v.1.15,2013-03-27 23:56:00,
2013-03-27 20:02:00,51.0,39.6,30.28,WNW,302,1.0,13.0,65,0.00,,,0.00,Wunderground v.1.15,2013-03-28 00:02:00,
2013-03-27 20:08:00,50.9,39.9,30.28,WNW,300,0.0,13.0,66,0.00,,,0.00,Wunderground v.1.15,2013-03-28 00:08:00,
2013-03-27 20:13:00,50.8,39.8,30.28,West,278,0.0,0.0,66,0.00,,,0.00,Wunderground v.1.15,2013-03-28 00:13:00,
2013-03-27 20:19:00,50.6,40.0,30.28,WNW,303,0.0,1.0,67,0.00,,,0.00,Wunderground v.1.15,2013-03-28 00:19:00,
2013-03-27 20:25:00,50.5,39.9,30.28,NW,313,1.0,2.0,67,0.00,,,0.00,Wunderground v.1.15,2013-03-28 00:25:00,
2013-03-27 20:30:00,50.3,40.1,30.28,NW,306,0.0,0.0,68,0.00,,,0.00,Wunderground v.1.15,2013-03-28 00:30:00,
2013-03-27 20:36:00,50.1,39.9,30.28,NNW,340,0.0,3.0,68,0.00,,,0.00,Wunderground v.1.15,2013-03-28 00:36:00,
2013-03-27 20:42:00,50.1,40.3,30.29,NNW,340,0.0,0.0,69,0.00,,,0.00,Wunderground v.1.15,2013-03-28 00:42:00,
2013-03-27 20:48:00,50.1,40.3,30.29,NNW,338,0.0,0.0,69,0.00,,,0.00,Wunderground v.1.15,2013-03-28 00:48:00,
2013-03-27 20:54:00,50.0,40.2,30.29,NNW,330,0.0,0.0,69,0.00,,,0.00,Wunderground v.1.15,2013-03-28 00:54:00,
2013-03-27 20:59:00,50.0,40.2,30.29,NNW,331,0.0,0.0,69,0.00,,,0.00,Wunderground v.1.15,2013-03-28 00:59:00,
2013-03-27 21:04:00,49.9,40.1,30.29,NNW,330,0.0,6.0,69,0.00,,,0.00,Wunderground v.1.15,2013-03-28 01:04:00,
2013-03-27 21:09:00,49.7,40.3,30.29,NNW,331,0.0,6.0,70,0.00,,,0.00,Wunderground v.1.15,2013-03-28 01:09:00,
2013-03-27 21:15:00,49.6,40.2,30.29,NNW,333,0.0,0.0,70,0.00,,,0.00,Wunderground v.1.15,2013-03-28 01:15:00,
2013-03-27 21:20:00,49.6,40.2,30.29,NNW,333,0.0,0.0,70,0.00,,,0.00,Wunderground v.1.15,2013-03-28 01:20:00,
2013-03-27 21:27:00,49.5,40.5,30.29,NNW,334,0.0,0.0,71,0.00,,,0.00,Wunderground v.1.15,2013-03-28 01:27:00,
2013-03-27 21:32:00,49.5,40.5,30.29,NNW,335,0.0,1.0,71,0.00,,,0.00,Wunderground v.1.15,2013-03-28 01:32:00,
2013-03-27 21:37:00,49.5,40.5,30.29,NNW,335,0.0,1.0,71,0.00,,,0.00,Wunderground v.1.15,2013-03-28 01:37:00,
2013-03-27 21:43:00,49.5,40.8,30.29,NNW,334,0.0,0.0,72,0.00,,,0.00,Wunderground v.1.15,2013-03-28 01:43:00,
2013-03-27 21:48:00,49.4,40.7,30.29,NNW,335,0.0,0.0,72,0.00,,,0.00,Wunderground v.1.15,2013-03-28 01:48:00,
2013-03-27 21:53:00,49.3,40.7,30.30,NNW,334,0.0,0.0,72,0.00,,,0.00,Wunderground v.1.15,2013-03-28 01:53:00,
2013-03-27 21:59:00,49.1,40.5,30.30,NNW,334,0.0,0.0,72,0.00,,,0.00,Wunderground v.1.15,2013-03-28 01:59:00,
2013-03-27 22:04:00,48.9,40.6,30.30,NNW,335,0.0,0.0,73,0.00,,,0.00,Wunderground v.1.15,2013-03-28 02:04:00,
2013-03-27 22:10:00,48.7,40.8,30.30,NNW,335,0.0,0.0,74,0.00,,,0.00,Wunderground v.1.15,2013-03-28 02:10:00,
2013-03-27 22:15:00,48.5,40.6,30.30,NNW,335,0.0,0.0,74,0.00,,,0.00,Wunderground v.1.15,2013-03-28 02:15:00,
2013-03-27 22:20:00,48.3,40.7,30.30,NNW,335,0.0,0.0,75,0.00,,,0.00,Wunderground v.1.15,2013-03-28 02:20:00,
2013-03-27 22:26:00,48.2,40.6,30.30,NNW,335,0.0,0.0,75,0.00,,,0.00,Wunderground v.1.15,2013-03-28 02:26:00,
2013-03-27 22:32:00,48.0,41.1,30.30,NNW,335,0.0,0.0,77,0.00,,,0.00,Wunderground v.1.15,2013-03-28 02:32:00,
2013-03-27 22:38:00,47.8,40.6,30.31,NNW,335,0.0,0.0,76,0.00,,,0.00,Wunderground v.1.15,2013-03-28 02:38:00,
2013-03-27 22:43:00,47.6,40.7,30.30,NNW,335,0.0,0.0,77,0.00,,,0.00,Wunderground v.1.15,2013-03-28 02:43:00,
2013-03-27 22:49:00,47.3,40.8,30.31,NNW,335,0.0,0.0,78,0.00,,,0.00,Wunderground v.1.15,2013-03-28 02:49:00,
2013-03-27 22:54:00,47.2,40.7,30.30,NNW,335,0.0,0.0,78,0.00,,,0.00,Wunderground v.1.15,2013-03-28 02:54:00,
2013-03-27 23:00:00,47.0,40.5,30.31,NNW,335,0.0,0.0,78,0.00,,,0.00,Wunderground v.1.15,2013-03-28 03:00:00,
2013-03-27 23:05:00,46.9,40.7,30.31,NNW,335,0.0,0.0,79,0.00,,,0.00,Wunderground v.1.15,2013-03-28 03:05:00,
2013-03-27 23:12:00,46.7,40.9,30.31,NNW,335,0.0,0.0,80,0.00,,,0.00,Wunderground v.1.15,2013-03-28 03:12:00,
2013-03-27 23:18:00,46.5,40.7,30.31,NNW,335,0.0,0.0,80,0.00,,,0.00,Wunderground v.1.15,2013-03-28 03:18:00,
2013-03-27 23:23:00,46.4,40.9,30.31,NNW,334,0.0,0.0,81,0.00,,,0.00,Wunderground v.1.15,2013-03-28 03:23:00,
2013-03-27 23:29:00,46.2,40.7,30.31,NNW,334,0.0,0.0,81,0.00,,,0.00,Wunderground v.1.15,2013-03-28 03:29:00,
2013-03-27 23:34:00,46.1,40.6,30.31,NNW,335,0.0,0.0,81,0.00,,,0.00,Wunderground v.1.15,2013-03-28 03:34:00,
2013-03-27 23:40:00,45.9,40.7,30.30,NNW,335,0.0,0.0,82,0.00,,,0.00,Wunderground v.1.15,2013-03-28 03:40:00,
2013-03-27 23:46:00,45.8,40.6,30.30,NNW,334,0.0,0.0,82,0.00,,,0.00,Wunderground v.1.15,2013-03-28 03:46:00,
2013-03-27 23:52:00,45.5,40.6,30.30,NNW,334,0.0,0.0,83,0.00,,,0.00,Wunderground v.1.15,2013-03-28 03:52:00,
2013-03-27 23:58:00,45.3,40.4,30.30,NNW,334,0.0,0.0,83,0.00,,,0.00,Wunderground v.1.15,2013-03-28 03:58:00,